sat.trackr.live / text

‹ back to catalog

SNUGLITE-II

NORAD 52899 · 2022-065F

PAYLOAD ACTIVE UNKNOWN

§ Identity

Operator
Country
SKOR
Launch date
2022-06-21
Launch site
NSC
Launch vehicle
Mass (kg)
RCS (m²)

External: N2YO · Heavens-Above · Gunter

§ Orbital elements

Epoch: 2026-09-20T05:03:07.346880Z

Period
98.33 min
Inclination
98.2342°
Eccentricity
0.0008687
Mean motion
14.64491944 rev/d
Perigee alt
672.6 km
Apogee alt
684.8 km
Semi-major
7,056.8 km
B*
1.2105e-4
RAAN
47.9569°
Arg perigee
86.9044°
Mean anomaly
273.3153°
Rev number
22,490

§ Raw data

SNUGLITE-II1 52899U 22065F   26263.21050170  .00000593  00000+0  12105-3 0  99912 52899  98.2342  47.9569 0008687  86.9044 273.3153 14.64491944224900

JSON: /api/v1/satellites/52899 · /tle

For live sub-satellite position, see the globe view (requires WebGL).

§ Visibility from observer

Set your observer location to see the next 7 days of passes ≥ 10°. The values pass through the URL so the page stays shareable.

No JS? Fill the form by hand. The geolocation button needs JavaScript.

§ Radio — SatNOGS DB

ModeDescriptionDownlinkUplink
DQPSK Mode S - DQPSK 2.405 GHz
GMSK Mode U - 9k6 GMSK AX25 G3RUH TLM 436.490 MHz

2 transmitters · refreshed weekly from db.satnogs.org